Location: Unspecified
(48.8656°N, 0.0000°E)
Time: 14:03:43
(UTC+00:00)

Vanguard 1 - Pass Details

Date: 22 June 2019
Orbit: 653 x 3830 km, 34.3° (Epoch: 17 July)

Event Time Altitude Azimuth Distance (km) Brightness Sun altitude
Rises 05:49:16 0° 259° (W) 6,428 13.6 15.4°
Reaches altitude 10° 05:54:43 10° 251° (WSW) 4,851 13.0 16.3°
Maximum altitude 06:04:53 31° 196° (SSW) 2,398 11.9 17.9°
Drops below altitude 10° 06:11:09 10° 137° (SE) 2,931 13.0 18.9°
Sets 06:13:36 0° 126° (SE) 3,617 13.6 19.3°
